TimeMST,TemperatureF,Dew PointF,Humidity,Sea Level PressureIn,VisibilityMPH,Wind Direction,Wind SpeedMPH,Gust SpeedMPH,PrecipitationIn,Events,Conditions,WindDirDegrees,DateUTC
12:53 AM,26.1,7.0,44,29.94,10.0,North,4.6,-,N/A,,Overcast,360,2014-02-25 07:53:00
1:53 AM,28.0,7.0,41,29.92,10.0,NNW,6.9,-,N/A,,Overcast,340,2014-02-25 08:53:00
2:53 AM,30.0,5.0,35,29.87,10.0,NE,4.6,-,N/A,,Overcast,40,2014-02-25 09:53:00
3:53 AM,28.9,5.0,36,29.86,10.0,NNE,9.2,-,N/A,,Overcast,20,2014-02-25 10:53:00
4:53 AM,30.9,5.0,33,29.85,10.0,North,9.2,23.0,N/A,,Overcast,10,2014-02-25 11:53:00
5:53 AM,30.0,6.1,36,29.89,10.0,North,12.7,17.3,N/A,,Overcast,360,2014-02-25 12:53:00
6:53 AM,30.0,6.1,36,29.88,10.0,North,9.2,-,N/A,,Overcast,10,2014-02-25 13:53:00
7:53 AM,32.0,10.9,42,29.88,10.0,North,5.8,-,N/A,,Overcast,360,2014-02-25 14:53:00
8:53 AM,32.0,12.0,44,29.86,10.0,North,5.8,-,N/A,,Overcast,360,2014-02-25 15:53:00
9:53 AM,33.1,12.9,43,29.88,10.0,NNW,6.9,-,N/A,,Overcast,330,2014-02-25 16:53:00
10:53 AM,33.1,12.9,43,29.88,10.0,NNW,11.5,24.2,N/A,,Overcast,330,2014-02-25 17:53:00
11:53 AM,35.1,12.9,40,29.84,10.0,NNW,13.8,18.4,N/A,,Overcast,330,2014-02-25 18:53:00
12:53 PM,34.0,12.0,40,29.83,10.0,WNW,18.4,35.7,N/A,,Overcast,290,2014-02-25 19:53:00
1:53 PM,39.0,12.0,33,29.75,10.0,WNW,16.1,25.3,N/A,,Mostly Cloudy,300,2014-02-25 20:53:00
2:53 PM,37.0,12.9,37,29.75,10.0,NW,13.8,36.8,N/A,,Clear,320,2014-02-25 21:53:00
3:53 PM,36.0,12.9,39,29.76,10.0,WNW,16.1,32.2,N/A,,Clear,290,2014-02-25 22:53:00
4:53 PM,35.1,12.0,39,29.76,10.0,WNW,17.3,27.6,N/A,,Clear,290,2014-02-25 23:53:00
5:53 PM,32.0,12.0,44,29.81,10.0,NW,11.5,23.0,N/A,,Scattered Clouds,320,2014-02-26 00:53:00
6:53 PM,32.0,12.9,45,29.82,10.0,NW,18.4,26.5,N/A,,Overcast,320,2014-02-26 01:53:00
7:53 PM,28.9,19.0,67,29.85,6.0,NNW,16.1,28.8,0.00,Snow,Light Snow,330,2014-02-26 02:53:00
8:44 PM,28.0,19.0,69,30.04,9.0,NE,9.2,-,0.00,,Mostly Cloudy,40,2014-02-26 03:44:00
8:53 PM,28.0,19.0,69,29.86,10.0,Variable,5.8,-,0.00,,Mostly Cloudy,0,2014-02-26 03:53:00
9:53 PM,28.0,16.0,61,29.85,10.0,Variable,4.6,-,N/A,,Mostly Cloudy,0,2014-02-26 04:53:00
10:53 PM,28.9,16.0,58,29.84,10.0,NNW,5.8,-,N/A,,Mostly Cloudy,340,2014-02-26 05:53:00
11:53 PM,27.0,19.0,72,29.84,7.0,North,4.6,-,0.00,Snow,Light Snow,350,2014-02-26 06:53:00